When you browse on this site, cookies collect data to enhance your experience and personalize the content and advertising you see.
Visit our Privacy Policy to learn more. By continuing to use the site, you agree to this use of cookies and data.
  • In Austria
  • List of Countries
  • For 7 days
  • Water Temperature
  • Weather Map
  • News
  • Weather Widgets
  • user-avatar
    Login

    Hourly Weather Hlukhe

    Today, 17 September, Tuesday

    Time Temperature Precipitation Wind Pressure Humidity
    00:00 +17°C° 0 mm 5 mps 749 mmHg 73%
    01:00 +17°C° 0 mm 4 mps 749 mmHg 75%
    02:00 +15°C° 0 mm 4 mps 749 mmHg 80%
    03:00 +16°C° 0 mm 3 mps 749 mmHg 78%
    04:00 +16°C° 0 mm 3 mps 749 mmHg 75%
    05:00 +16°C° 0 mm 2 mps 749 mmHg 72%
    06:00 +17°C° 0 mm 3 mps 749 mmHg 67%
    07:00 +19°C° 0 mm 3 mps 749 mmHg 61%
    08:00 +20°C° 0 mm 3 mps 749 mmHg 55%
    09:00 +20°C° 0 mm 3 mps 749 mmHg 55%
    10:00 +20°C° 0 mm 3 mps 749 mmHg 55%
    11:00 +21°C° 0 mm 2 mps 749 mmHg 56%
    12:00 +19°C° 0.1 mm 3 mps 748 mmHg 63%
    13:00 +18°C° 0.1 mm 4 mps 748 mmHg 71%
    14:00 +16°C° 0.1 mm 5 mps 748 mmHg 78%
    15:00 +17°C° 0 mm 4 mps 748 mmHg 73%
    16:00 +18°C° 0 mm 4 mps 747 mmHg 68%
    17:00 +19°C° 0 mm 4 mps 747 mmHg 64%
    18:00 +18°C° 0 mm 4 mps 748 mmHg 66%
    19:00 +17°C° 0 mm 3 mps 748 mmHg 68%
    20:00 +16°C° 0 mm 3 mps 748 mmHg 70%
    21:00 +16°C° 0 mm 3 mps 748 mmHg 74%
    22:00 +14°C° 0 mm 3 mps 748 mmHg 78%
    23:00 +13°C° 0 mm 4 mps 748 mmHg 82%

    Tomorrow, 18 September, Wednesday

    Time Temperature Precipitation Wind Pressure Humidity
    00:00 +13°C° 0 mm 4 mps 748 mmHg 83%
    01:00 +13°C° 0 mm 4 mps 748 mmHg 84%
    02:00 +13°C° 0 mm 4 mps 748 mmHg 84%
    03:00 +13°C° 0 mm 4 mps 748 mmHg 83%
    04:00 +13°C° 0 mm 4 mps 747 mmHg 82%
    05:00 +13°C° 0 mm 4 mps 747 mmHg 81%
    06:00 +14°C° 0.1 mm 5 mps 747 mmHg 78%
    07:00 +16°C° 0.1 mm 7 mps 746 mmHg 75%
    08:00 +18°C° 0.1 mm 8 mps 746 mmHg 72%
    09:00 +19°C° 0.1 mm 10 mps 746 mmHg 65%
    10:00 +21°C° 0.1 mm 11 mps 746 mmHg 58%
    11:00 +22°C° 0.1 mm 13 mps 746 mmHg 51%
    12:00 +21°C° 0 mm 12 mps 747 mmHg 45%
    13:00 +18°C° 0 mm 12 mps 747 mmHg 39%
    14:00 +17°C° 0 mm 11 mps 748 mmHg 33%
    15:00 +17°C° 0 mm 10 mps 748 mmHg 31%
    16:00 +17°C° 0 mm 9 mps 749 mmHg 29%
    17:00 +16°C° 0 mm 8 mps 749 mmHg 27%
    18:00 +15°C° 0 mm 8 mps 750 mmHg 32%
    19:00 +12°C° 0 mm 7 mps 750 mmHg 37%
    20:00 +11°C° 0 mm 7 mps 751 mmHg 42%
    21:00 +10°C° 0 mm 7 mps 752 mmHg 46%
    22:00 +10°C° 0 mm 7 mps 752 mmHg 50%
    23:00 +10°C° 0 mm 8 mps 752 mmHg 54%

    Day after tomorrow, 19 September, Thursday

    Time Temperature Precipitation Wind Pressure Humidity
    00:00 +9°C° 0 mm 7 mps 753 mmHg 57%
    01:00 +9°C° 0 mm 7 mps 753 mmHg 61%
    02:00 +9°C° 0 mm 7 mps 754 mmHg 65%
    03:00 +8°C° 0 mm 6 mps 754 mmHg 68%
    04:00 +8°C° 0 mm 5 mps 754 mmHg 72%
    05:00 +7°C° 0 mm 5 mps 755 mmHg 75%
    06:00 +8°C° 0 mm 5 mps 755 mmHg 70%
    07:00 +10°C° 0 mm 5 mps 756 mmHg 65%
    08:00 +12°C° 0 mm 5 mps 756 mmHg 59%
    09:00 +14°C° 0 mm 6 mps 756 mmHg 53%
    10:00 +15°C° 0 mm 6 mps 756 mmHg 47%
    11:00 +17°C° 0 mm 6 mps 756 mmHg 40%
    12:00 +17°C° 0 mm 6 mps 756 mmHg 37%
    13:00 +19°C° 0 mm 6 mps 756 mmHg 34%
    14:00 +19°C° 0 mm 6 mps 756 mmHg 31%
    15:00 +19°C° 0 mm 6 mps 755 mmHg 32%
    16:00 +17°C° 0 mm 5 mps 755 mmHg 33%
    17:00 +17°C° 0 mm 5 mps 755 mmHg 34%
    18:00 +16°C° 0 mm 5 mps 755 mmHg 36%
    19:00 +15°C° 0 mm 5 mps 756 mmHg 39%
    20:00 +14°C° 0 mm 4 mps 756 mmHg 42%
    21:00 +13°C° 0 mm 4 mps 756 mmHg 44%
    22:00 +13°C° 0 mm 4 mps 756 mmHg 45%
    23:00 +12°C° 0 mm 3 mps 756 mmHg 47%

    20 September, Friday

    Time Temperature Precipitation Wind Pressure Humidity
    00:00 +12°C° 0 mm 3 mps 756 mmHg 49%
    01:00 +11°C° 0 mm 3 mps 756 mmHg 51%
    02:00 +10°C° 0 mm 3 mps 756 mmHg 53%
    03:00 +10°C° 0 mm 3 mps 755 mmHg 56%
    04:00 +9°C° 0 mm 3 mps 755 mmHg 59%
    05:00 +7°C° 0 mm 4 mps 755 mmHg 62%
    06:00 +10°C° 0 mm 4 mps 755 mmHg 59%
    07:00 +11°C° 0 mm 4 mps 755 mmHg 56%
    08:00 +13°C° 0 mm 5 mps 755 mmHg 52%
    09:00 +14°C° 0 mm 5 mps 755 mmHg 47%
    10:00 +15°C° 0 mm 5 mps 755 mmHg 42%
    11:00 +17°C° 0 mm 5 mps 754 mmHg 37%
    12:00 +17°C° 0 mm 5 mps 754 mmHg 36%
    13:00 +17°C° 0 mm 5 mps 754 mmHg 35%
    14:00 +17°C° 0 mm 5 mps 753 mmHg 34%
    15:00 +16°C° 0.1 mm 5 mps 753 mmHg 35%
    16:00 +15°C° 0.1 mm 5 mps 753 mmHg 35%
    17:00 +15°C° 0.1 mm 5 mps 753 mmHg 36%
    18:00 +13°C° 0 mm 5 mps 754 mmHg 39%
    19:00 +11°C° 0 mm 6 mps 754 mmHg 43%
    20:00 +10°C° 0 mm 6 mps 754 mmHg 46%
    21:00 +9°C° 0 mm 6 mps 755 mmHg 50%
    22:00 +8°C° 0 mm 5 mps 755 mmHg 53%
    23:00 +7°C° 0 mm 4 mps 755 mmHg 57%

    21 September, Saturday

    Time Temperature Precipitation Wind Pressure Humidity
    00:00 +6°C° 0 mm 5 mps 755 mmHg 56%
    01:00 +6°C° 0 mm 5 mps 755 mmHg 55%
    02:00 +5°C° 0 mm 6 mps 755 mmHg 53%
    03:00 +5°C° 0 mm 6 mps 755 mmHg 56%
    04:00 +4°C° 0 mm 6 mps 755 mmHg 59%
    05:00 +4°C° 0 mm 6 mps 755 mmHg 62%
    06:00 +5°C° 0 mm 6 mps 755 mmHg 61%
    07:00 +6°C° 0 mm 7 mps 755 mmHg 60%
    08:00 +7°C° 0 mm 8 mps 755 mmHg 60%
    09:00 +7°C° 0 mm 8 mps 755 mmHg 57%
    10:00 +9°C° 0 mm 8 mps 755 mmHg 55%
    11:00 +9°C° 0 mm 7 mps 756 mmHg 53%
    12:00 +10°C° 0 mm 8 mps 756 mmHg 53%
    13:00 +10°C° 0 mm 8 mps 756 mmHg 53%
    14:00 +10°C° 0 mm 8 mps 756 mmHg 53%
    15:00 +10°C° 0 mm 7 mps 756 mmHg 51%
    16:00 +10°C° 0 mm 7 mps 757 mmHg 50%
    17:00 +10°C° 0 mm 7 mps 757 mmHg 48%
    18:00 +9°C° 0 mm 6 mps 757 mmHg 51%
    19:00 +8°C° 0 mm 5 mps 758 mmHg 54%
    20:00 +7°C° 0 mm 4 mps 759 mmHg 56%
    21:00 +6°C° 0 mm 4 mps 759 mmHg 58%
    22:00 +6°C° 0 mm 4 mps 759 mmHg 59%
    23:00 +5°C° 0 mm 3 mps 760 mmHg 61%

    22 September, Sunday

    Time Temperature Precipitation Wind Pressure Humidity
    00:00 +5°C° 0 mm 3 mps 760 mmHg 62%
    01:00 +4°C° 0 mm 3 mps 760 mmHg 64%
    02:00 +4°C° 0 mm 4 mps 760 mmHg 65%
    03:00 +4°C° 0 mm 4 mps 760 mmHg 67%
    04:00 +3°C° 0 mm 3 mps 761 mmHg 69%
    05:00 +3°C° 0 mm 3 mps 761 mmHg 71%
    06:00 +5°C° 0 mm 4 mps 761 mmHg 65%
    07:00 +6°C° 0 mm 4 mps 762 mmHg 59%
    08:00 +8°C° 0 mm 4 mps 762 mmHg 52%
    09:00 +10°C° 0 mm 4 mps 762 mmHg 45%
    10:00 +11°C° 0 mm 3 mps 762 mmHg 39%
    11:00 +13°C° 0 mm 3 mps 762 mmHg 32%
    12:00 +13°C° 0 mm 4 mps 762 mmHg 29%
    13:00 +14°C° 0 mm 4 mps 762 mmHg 27%
    14:00 +14°C° 0 mm 4 mps 761 mmHg 25%
    15:00 +14°C° 0 mm 4 mps 761 mmHg 26%
    16:00 +13°C° 0 mm 3 mps 761 mmHg 27%
    17:00 +13°C° 0 mm 3 mps 761 mmHg 28%
    18:00 +12°C° 0 mm 3 mps 761 mmHg 30%
    19:00 +10°C° 0 mm 2 mps 762 mmHg 33%
    20:00 +10°C° 0 mm 1 mps 762 mmHg 36%
    21:00 +10°C° 0 mm 1 mps 762 mmHg 37%
    22:00 +10°C° 0 mm 1 mps 762 mmHg 38%
    23:00 +9°C° 0 mm 1 mps 762 mmHg 39%
    Show more